,,,PA_Meas_PMT16A,,PR_Meas_QMR101_102,,RH_Meas_QMH101,,SR_Meas_QMS101,,TA_Meas_QMH101,,GenWind,,GenWind,
date,time,status,PA,status,PR,status,RH,status,SR,status,TA,status,DirAvg,status,SpdAvg,
2009-09-12, 00:00:04,VALID,1001.6,VALID,0,VALID,89.587,VALID,0,VALID,22.4331,VALID,121,VALID,0.996875,
2009-09-12, 00:01:04,VALID,1001.64,VALID,0,VALID,89.7396,VALID,0,VALID,22.3941,VALID,143,VALID,1.12969,
2009-09-12, 00:02:04,VALID,1001.65,VALID,0,VALID,89.7014,VALID,0,VALID,22.3746,VALID,139,VALID,1.06094,
2009-09-12, 00:03:04,VALID,1001.63,VALID,0,VALID,89.6404,VALID,0,VALID,22.3568,VALID,133,VALID,0.488672,
2009-09-12, 00:04:04,VALID,1001.64,VALID,0,VALID,89.6557,VALID,0,VALID,22.3356,VALID,137,VALID,0.135156,
2009-09-12, 00:05:04,VALID,1001.65,VALID,0,VALID,89.587,VALID,0,VALID,22.3178,VALID,112,VALID,0.413281,
2009-09-12, 00:06:04,VALID,1001.66,VALID,0,VALID,89.8464,VALID,0,VALID,22.3178,VALID,112,VALID,1.09102,
2009-09-12, 00:07:04,VALID,1001.65,VALID,0,VALID,89.8235,VALID,0,VALID,22.2983,VALID,116,VALID,0.685938,
2009-09-12, 00:08:04,VALID,1001.63,VALID,0,VALID,90.0829,VALID,0,VALID,22.2576,VALID,108,VALID,1.13359,
2009-09-12, 00:09:04,VALID,1001.63,VALID,0,VALID,90.4034,VALID,0,VALID,22.3178,VALID,95,VALID,1.40195,
2009-09-12, 00:10:04,VALID,1001.63,VALID,0,VALID,90.06,VALID,0,VALID,22.2966,VALID,86,VALID,0.709375,
2009-09-12, 00:11:04,VALID,1001.62,VALID,0,VALID,90.1897,VALID,0,VALID,22.2771,VALID,91,VALID,0.965234,
2009-09-12, 00:12:04,VALID,1001.59,VALID,0,VALID,90.0906,VALID,0,VALID,22.2983,VALID,31,VALID,0.839063,
2009-09-12, 00:13:04,VALID,1001.54,VALID,0,VALID,89.6938,VALID,0,VALID,22.2186,VALID,30,VALID,0.473437,
2009-09-12, 00:14:04,VALID,1001.57,VALID,0,VALID,89.4878,VALID,0,VALID,22.121,VALID,4,VALID,1.1207,
2009-09-12, 00:15:04,VALID,1001.51,VALID,0,VALID,89.9914,VALID,0,VALID,22.0837,VALID,327,VALID,0.869141,
2009-09-12, 00:16:04,VALID,1001.51,VALID,0,VALID,90.1821,VALID,0,VALID,22.0447,VALID,327,VALID,0.774609,
2009-09-12, 00:17:04,VALID,1001.49,VALID,0,VALID,89.8769,VALID,0,VALID,21.926,VALID,326,VALID,0.423828,
2009-09-12, 00:18:04,VALID,1001.48,VALID,0,VALID,90.4644,VALID,0,VALID,21.887,VALID,334,VALID,0.657422,
2009-09-12, 00:19:04,VALID,1001.48,VALID,0,VALID,90.8459,VALID,0,VALID,21.9277,VALID,337,VALID,0.851953,
2009-09-12, 00:20:04,VALID,1001.47,VALID,0,VALID,90.8917,VALID,0,VALID,21.9065,VALID,316,VALID,0.294141,
2009-09-12, 00:21:04,VALID,1001.47,VALID,0,VALID,90.823,VALID,0,VALID,21.9082,VALID,316,VALID,0.0917969,
2009-09-12, 00:22:04,VALID,1001.46,VALID,0,VALID,90.7925,VALID,0,VALID,21.8675,VALID,318,VALID,0.523438,
2009-09-12, 00:23:04,VALID,1001.45,VALID,0,VALID,90.9985,VALID,0,VALID,21.848,VALID,4,VALID,0.935156,
2009-09-12, 00:24:04,VALID,1001.43,VALID,0,VALID,91.09,VALID,0,VALID,21.9082,VALID,15,VALID,0.584375,
2009-09-12, 00:25:04,VALID,1001.38,VALID,0,VALID,90.5712,VALID,0,VALID,21.9065,VALID,68,VALID,0.951953,
2009-09-12, 00:26:04,VALID,1001.36,VALID,0,VALID,90.9451,VALID,0,VALID,21.9455,VALID,54,VALID,0.992578,
2009-09-12, 00:27:04,VALID,1001.41,VALID,0,VALID,90.4491,VALID,0,VALID,22.004,VALID,118,VALID,0.99375,
2009-09-12, 00:28:04,VALID,1001.35,VALID,0,VALID,90.6399,VALID,0,VALID,22.0837,VALID,95,VALID,1.16172,
2009-09-12, 00:29:04,VALID,1001.38,VALID,0,VALID,89.8235,VALID,0,VALID,22.1617,VALID,97,VALID,1.49805,
2009-09-12, 00:30:04,VALID,1001.35,VALID,0,VALID,89.1903,VALID,0,VALID,22.1617,VALID,94,VALID,1.28398,
2009-09-12, 00:31:04,VALID,1001.33,VALID,0,VALID,89.7472,VALID,0,VALID,22.2007,VALID,93,VALID,1.03711,
2009-09-12, 00:32:04,VALID,1001.32,VALID,0,VALID,89.6251,VALID,0,VALID,22.2202,VALID,97,VALID,0.584375,
2009-09-12, 00:33:04,VALID,1001.3,VALID,0,VALID,89.4726,VALID,0,VALID,22.2397,VALID,102,VALID,0.295312,
2009-09-12, 00:34:04,VALID,1001.31,VALID,0,VALID,89.7701,VALID,0,VALID,22.2397,VALID,104,VALID,0.53125,
2009-09-12, 00:35:04,VALID,1001.28,VALID,0,VALID,89.7625,VALID,0,VALID,22.2202,VALID,103,VALID,0.520312,
2009-09-12, 00:36:04,VALID,1001.28,VALID,0,VALID,88.5799,VALID,0,VALID,22.1812,VALID,39,VALID,1.3,
2009-09-12, 00:37:04,VALID,1001.26,VALID,0,VALID,88.2747,VALID,0,VALID,22.0447,VALID,49,VALID,1.43281,
2009-09-12, 00:38:04,VALID,1001.27,VALID,0,VALID,88.7172,VALID,0,VALID,21.8887,VALID,52,VALID,1.23906,
2009-09-12, 00:39:04,VALID,1001.26,VALID,0,VALID,89.5412,VALID,0,VALID,21.7911,VALID,47,VALID,1.02773,
2009-09-12, 00:40:04,VALID,1001.22,VALID,0,VALID,89.8083,VALID,0,VALID,21.7521,VALID,39,VALID,0.860937,
2009-09-12, 00:41:04,VALID,1001.2,VALID,0,VALID,89.6099,VALID,0,VALID,21.6741,VALID,31,VALID,0.808594,
2009-09-12, 00:42:04,VALID,1001.2,VALID,0,VALID,89.7243,VALID,0,VALID,21.5555,VALID,26,VALID,0.817578,
2009-09-12, 00:43:04,VALID,1001.15,VALID,0,VALID,90.6857,VALID,0,VALID,21.575,VALID,51,VALID,0.447656,
2009-09-12, 00:44:04,VALID,1001.11,VALID,0,VALID,90.4034,VALID,0,VALID,21.5766,VALID,38,VALID,0.317969,
2009-09-12, 00:45:04,VALID,1001.09,VALID,0,VALID,90.4873,VALID,0,VALID,21.5555,VALID,38,VALID,0.288281,
2009-09-12, 00:46:04,VALID,1001.06,VALID,0,VALID,90.4568,VALID,0,VALID,21.5766,VALID,38,VALID,0.00429688,
2009-09-12, 00:47:04,VALID,1001.09,VALID,0,VALID,90.6399,VALID,0,VALID,21.5766,VALID,38,VALID,0.214062,
2009-09-12, 00:48:04,VALID,1001.06,VALID,0,VALID,90.5407,VALID,0,VALID,21.5571,VALID,38,VALID,0.310156,
2009-09-12, 00:49:04,VALID,1001.07,VALID,0,VALID,90.7696,VALID,0,VALID,21.5766,VALID,82,VALID,0.642578,
2009-09-12, 00:50:04,VALID,1001.06,VALID,0,VALID,90.3728,VALID,0,VALID,21.5961,VALID,70,VALID,0.7375,
2009-09-12, 00:51:04,VALID,1001.08,VALID,0,VALID,89.9151,VALID,0,VALID,21.5766,VALID,71,VALID,0.569531,
2009-09-12, 00:52:04,VALID,1001.09,VALID,0,VALID,89.6404,VALID,0,VALID,21.5376,VALID,136,VALID,0.390234,
2009-09-12, 00:53:04,VALID,1001.07,VALID,0,VALID,89.6328,VALID,0,VALID,21.5376,VALID,116,VALID,0.525781,
2009-09-12, 00:54:04,VALID,1001.06,VALID,0,VALID,89.8083,VALID,0,VALID,21.497,VALID,114,VALID,0.81875,
2009-09-12, 00:55:04,VALID,1001.05,VALID,0,VALID,90.0066,VALID,0,VALID,21.5181,VALID,81,VALID,0.976953,
2009-09-12, 00:56:04,VALID,1001.06,VALID,0,VALID,89.4649,VALID,0,VALID,21.5165,VALID,66,VALID,0.944531,
2009-09-12, 00:57:04,VALID,1001.05,VALID,0,VALID,89.1903,VALID,0,VALID,21.4986,VALID,99,VALID,1.15508,
2009-09-12, 00:58:04,VALID,1001.03,VALID,0,VALID,89.1292,VALID,0,VALID,21.5181,VALID,88,VALID,1.32578,
2009-09-12, 00:59:04,VALID,1001.06,VALID,0,VALID,88.7477,VALID,0,VALID,21.5555,VALID,92,VALID,1.05859,
2009-09-12, 01:00:04,VALID,1001.06,VALID,0,VALID,88.7401,VALID,0,VALID,21.5961,VALID,103,VALID,1.32148,
2009-09-12, 01:01:04,VALID,1001.05,VALID,0,VALID,88.6028,VALID,0,VALID,21.6546,VALID,86,VALID,1.38086,
2009-09-12, 01:02:04,VALID,1001.07,VALID,0,VALID,88.3968,VALID,0,VALID,21.6741,VALID,71,VALID,1.8332,
2009-09-12, 01:03:04,VALID,1001.06,VALID,0,VALID,87.8093,VALID,0,VALID,21.7131,VALID,53,VALID,1.23594,
2009-09-12, 01:04:04,VALID,1001.07,VALID,0,VALID,87.8246,VALID,0,VALID,21.6741,VALID,63,VALID,1.19727,
2009-09-12, 01:05:04,VALID,1001.04,VALID,0,VALID,87.9009,VALID,0,VALID,21.6741,VALID,59,VALID,1.06406,
2009-09-12, 01:06:04,VALID,1001.04,VALID,0,VALID,87.8169,VALID,0,VALID,21.6335,VALID,66,VALID,0.489062,
2009-09-12, 01:07:04,VALID,1001.06,VALID,0,VALID,87.5499,VALID,0,VALID,21.5961,VALID,39,VALID,0.267188,
2009-09-12, 01:08:04,VALID,1001.06,VALID,0,VALID,87.4889,VALID,0,VALID,21.5571,VALID,70,VALID,0.196484,
2009-09-12, 01:09:04,VALID,1001.07,VALID,0,VALID,87.7177,VALID,0,VALID,21.458,VALID,22,VALID,0.464063,
2009-09-12, 01:10:04,VALID,1001.05,VALID,0,VALID,88.1221,VALID,0,VALID,21.4401,VALID,346,VALID,0.420312,
2009-09-12, 01:11:04,VALID,1001.06,VALID,0,VALID,88.1832,VALID,0,VALID,21.3605,VALID,337,VALID,0.555469,
2009-09-12, 01:12:04,VALID,1001.06,VALID,0,VALID,88.5112,VALID,0,VALID,21.3231,VALID,322,VALID,0.752734,
2009-09-12, 01:13:04,VALID,1001.05,VALID,0,VALID,88.7554,VALID,0,VALID,21.3231,VALID,330,VALID,0.751172,
2009-09-12, 01:14:04,VALID,1001.05,VALID,0,VALID,89.114,VALID,0,VALID,21.3426,VALID,330,VALID,0.830078,
2009-09-12, 01:15:04,VALID,1001.06,VALID,0,VALID,89.4954,VALID,0,VALID,21.3215,VALID,329,VALID,0.654688,
2009-09-12, 01:16:04,VALID,1001.07,VALID,0,VALID,89.2513,VALID,0,VALID,21.3426,VALID,295,VALID,0.700781,
2009-09-12, 01:17:04,VALID,1001.07,VALID,0,VALID,89.5031,VALID,0,VALID,21.302,VALID,294,VALID,0.384375,
2009-09-12, 01:18:04,VALID,1001.08,VALID,0,VALID,89.7701,VALID,0,VALID,21.3231,VALID,299,VALID,0.707812,
2009-09-12, 01:19:04,VALID,1001.09,VALID,0,VALID,89.9609,VALID,0,VALID,21.3621,VALID,309,VALID,0.504297,
2009-09-12, 01:20:04,VALID,1001.1,VALID,0,VALID,90.0448,VALID,0,VALID,21.3816,VALID,312,VALID,0.819922,
2009-09-12, 01:21:04,VALID,1001.1,VALID,0,VALID,89.8083,VALID,0,VALID,21.3816,VALID,312,VALID,0.387109,
2009-09-12, 01:22:04,VALID,1001.11,VALID,0,VALID,89.6023,VALID,0,VALID,21.3426,VALID,312,VALID,0.323828,
2009-09-12, 01:23:04,VALID,1001.1,VALID,0,VALID,89.2742,VALID,0,VALID,21.263,VALID,331,VALID,0.558984,
2009-09-12, 01:24:04,VALID,1001.07,VALID,0,VALID,90.0143,VALID,0,VALID,21.263,VALID,9,VALID,0.898438,
2009-09-12, 01:25:04,VALID,1001.08,VALID,0,VALID,89.8006,VALID,0,VALID,21.2841,VALID,24,VALID,1.03242,
2009-09-12, 01:26:04,VALID,1001.03,VALID,0,VALID,89.4954,VALID,0,VALID,21.2435,VALID,30,VALID,0.945313,
2009-09-12, 01:27:04,VALID,1001.04,VALID,0,VALID,89.381,VALID,0,VALID,21.2061,VALID,58,VALID,0.961719,
2009-09-12, 01:28:04,VALID,1001.01,VALID,0,VALID,89.0529,VALID,0,VALID,21.1671,VALID,92,VALID,0.968359,
2009-09-12, 01:29:04,VALID,1000.99,VALID,0,VALID,88.8698,VALID,0,VALID,21.2256,VALID,97,VALID,0.967969,
2009-09-12, 01:30:04,VALID,1001.04,VALID,0,VALID,88.1908,VALID,0,VALID,21.3621,VALID,101,VALID,1.12656,
2009-09-12, 01:31:04,VALID,1001.04,VALID,0,VALID,87.26,VALID,0,VALID,21.4385,VALID,101,VALID,1.15508,
2009-09-12, 01:32:04,VALID,1001,VALID,0,VALID,86.9395,VALID,0,VALID,21.5555,VALID,91,VALID,1.10859,
2009-09-12, 01:33:04,VALID,1001.04,VALID,0,VALID,86.4894,VALID,0,VALID,21.614,VALID,99,VALID,1.1082,
2009-09-12, 01:34:04,VALID,1001.03,VALID,0,VALID,86.5428,VALID,0,VALID,21.6741,VALID,115,VALID,0.943359,
2009-09-12, 01:35:04,VALID,1000.99,VALID,0,VALID,86.5351,VALID,0,VALID,21.7131,VALID,115,VALID,0.821484,
2009-09-12, 01:36:04,VALID,1001,VALID,0,VALID,86.9472,VALID,0,VALID,21.7131,VALID,99,VALID,0.76875,
2009-09-12, 01:37:04,VALID,1001,VALID,0,VALID,86.7869,VALID,0,VALID,21.7326,VALID,77,VALID,0.603125,
2009-09-12, 01:38:04,VALID,1001,VALID,0,VALID,86.497,VALID,0,VALID,21.7521,VALID,74,VALID,0.169531,
2009-09-12, 01:39:04,VALID,1001,VALID,0,VALID,86.4054,VALID,0,VALID,21.7131,VALID,74,VALID,0.315234,
2009-09-12, 01:40:04,VALID,1001.03,VALID,0,VALID,86.2529,VALID,0,VALID,21.6936,VALID,74,VALID,0.21875,
2009-09-12, 01:41:04,VALID,1001.04,VALID,0,VALID,86.0469,VALID,0,VALID,21.6936,VALID,119,VALID,0.507422,
2009-09-12, 01:42:04,VALID,1001.04,VALID,0,VALID,85.818,VALID,0,VALID,21.6741,VALID,130,VALID,0.383984,
2009-09-12, 01:43:04,VALID,1001.06,VALID,0,VALID,85.7951,VALID,0,VALID,21.6335,VALID,128,VALID,0.391016,
2009-09-12, 01:44:04,VALID,1001.08,VALID,0,VALID,85.6043,VALID,0,VALID,21.6335,VALID,128,VALID,0.0175781,
2009-09-12, 01:45:04,VALID,1001.04,VALID,0,VALID,85.7417,VALID,0,VALID,21.6156,VALID,128,VALID,0.166406,
2009-09-12, 01:46:04,VALID,1001.05,VALID,0,VALID,86.0469,VALID,0,VALID,21.614,VALID,23,VALID,0.455078,
2009-09-12, 01:47:04,VALID,1001.03,VALID,0,VALID,85.94,VALID,0,VALID,21.5945,VALID,11,VALID,0.578125,
2009-09-12, 01:48:04,VALID,1001.05,VALID,0,VALID,85.8332,VALID,0,VALID,21.6156,VALID,11,VALID,0.564844,
2009-09-12, 01:49:04,VALID,1001.05,VALID,0,VALID,85.8637,VALID,0,VALID,21.5961,VALID,11,VALID,0.384375,
2009-09-12, 01:50:04,VALID,1001.05,VALID,0,VALID,86.3597,VALID,0,VALID,21.5766,VALID,11,VALID,0.278125,
2009-09-12, 01:51:04,VALID,1001.02,VALID,0,VALID,86.4741,VALID,0,VALID,21.5555,VALID,11,VALID,0.254297,
2009-09-12, 01:52:04,VALID,1001.04,VALID,0,VALID,86.5809,VALID,0,VALID,21.5555,VALID,11,VALID,0.178906,
2009-09-12, 01:53:04,VALID,1001.06,VALID,0,VALID,86.7335,VALID,0,VALID,21.5766,VALID,11,VALID,0.180859,
2009-09-12, 01:54:04,VALID,1001.02,VALID,0,VALID,86.7946,VALID,0,VALID,21.5571,VALID,11,VALID,0.379297,
2009-09-12, 01:55:04,VALID,1001.04,VALID,0,VALID,86.8403,VALID,0,VALID,21.536,VALID,148,VALID,0.417188,
2009-09-12, 01:56:04,VALID,1001.06,VALID,0,VALID,86.7183,VALID,0,VALID,21.5766,VALID,148,VALID,0.274609,
2009-09-12, 01:57:04,VALID,1001.03,VALID,0,VALID,86.3902,VALID,0,VALID,21.6156,VALID,134,VALID,0.725,
2009-09-12, 01:58:04,VALID,1001.03,VALID,0,VALID,85.9706,VALID,0,VALID,21.6546,VALID,132,VALID,0.534766,
2009-09-12, 01:59:04,VALID,1001.05,VALID,0,VALID,85.5357,VALID,0,VALID,21.6725,VALID,137,VALID,0.541016,
2009-09-12, 02:00:04,VALID,1001.04,VALID,0,VALID,84.849,VALID,0,VALID,21.7326,VALID,135,VALID,0.471875,
2009-09-12, 02:01:04,VALID,1001.06,VALID,0,VALID,84.8643,VALID,0,VALID,21.7521,VALID,134,VALID,0.674609,
2009-09-12, 02:02:04,VALID,1001.05,VALID,0,VALID,84.5896,VALID,0,VALID,21.7911,VALID,118,VALID,0.610937,
2009-09-12, 02:03:04,VALID,1001.07,VALID,0,VALID,84.1242,VALID,0,VALID,21.7716,VALID,112,VALID,0.601953,
2009-09-12, 02:04:04,VALID,1001.06,VALID,0,VALID,84.8948,VALID,0,VALID,21.7716,VALID,90,VALID,0.8625,
2009-09-12, 02:05:04,VALID,1001.04,VALID,0,VALID,84.1623,VALID,0,VALID,21.7716,VALID,89,VALID,0.683203,
2009-09-12, 02:06:04,VALID,1001.05,VALID,0,VALID,85.1084,VALID,0,VALID,21.7115,VALID,98,VALID,0.589453,
2009-09-12, 02:07:04,VALID,1001.02,VALID,0,VALID,85.3602,VALID,0,VALID,21.692,VALID,98,VALID,0.403906,
2009-09-12, 02:08:04,VALID,1001.01,VALID,0,VALID,85.1237,VALID,0,VALID,21.6936,VALID,98,VALID,0.313281,
2009-09-12, 02:09:04,VALID,1001.01,VALID,0,VALID,85.0932,VALID,0,VALID,21.653,VALID,98,VALID,0.225781,
2009-09-12, 02:10:04,VALID,1001.03,VALID,0,VALID,85.2229,VALID,0,VALID,21.6351,VALID,98,VALID,0,
2009-09-12, 02:11:04,VALID,1001.03,VALID,0,VALID,85.4594,VALID,0,VALID,21.6156,VALID,98,VALID,0,
2009-09-12, 02:12:04,VALID,1001.06,VALID,0,VALID,85.5433,VALID,0,VALID,21.5766,VALID,98,VALID,0.00546875,
2009-09-12, 02:13:04,VALID,1001.07,VALID,0,VALID,85.0474,VALID,0,VALID,21.4791,VALID,98,VALID,0.303516,
2009-09-12, 02:14:04,VALID,1001.08,VALID,0,VALID,85.3449,VALID,0,VALID,21.3637,VALID,90,VALID,0.308594,
2009-09-12, 02:15:04,VALID,1001.11,VALID,0,VALID,85.6043,VALID,0,VALID,21.2451,VALID,91,VALID,0.325391,
2009-09-12, 02:16:04,VALID,1001.09,VALID,0,VALID,86.1842,VALID,0,VALID,21.1866,VALID,91,VALID,0.421875,
2009-09-12, 02:17:04,VALID,1001.08,VALID,0,VALID,86.703,VALID,0,VALID,21.1492,VALID,91,VALID,0.185156,
2009-09-12, 02:18:04,VALID,1001.1,VALID,0,VALID,86.8403,VALID,0,VALID,21.1102,VALID,91,VALID,0.0472656,
2009-09-12, 02:19:04,VALID,1001.11,VALID,0,VALID,87.3973,VALID,0,VALID,21.0306,VALID,113,VALID,0.642187,
2009-09-12, 02:20:04,VALID,1001.11,VALID,0,VALID,88.2594,VALID,0,VALID,21.0501,VALID,113,VALID,0.571875,
2009-09-12, 02:21:04,VALID,1001.14,VALID,0,VALID,88.2366,VALID,0,VALID,21.0891,VALID,113,VALID,0.528125,
2009-09-12, 02:22:04,VALID,1001.13,VALID,0,VALID,87.6949,VALID,0,VALID,21.0907,VALID,112,VALID,0.372656,
2009-09-12, 02:23:04,VALID,1001.14,VALID,0,VALID,88.0763,VALID,0,VALID,21.0501,VALID,112,VALID,0.219141,
2009-09-12, 02:24:04,VALID,1001.1,VALID,0,VALID,88.3892,VALID,0,VALID,21.0501,VALID,112,VALID,0.201562,
2009-09-12, 02:25:04,VALID,1001.11,VALID,0,VALID,88.3968,VALID,0,VALID,21.0696,VALID,112,VALID,0.123828,
2009-09-12, 02:26:04,VALID,1001.13,VALID,0,VALID,88.3892,VALID,0,VALID,21.0696,VALID,112,VALID,0.113281,
2009-09-12, 02:27:04,VALID,1001.11,VALID,0,VALID,88.5265,VALID,0,VALID,21.0712,VALID,112,VALID,0.194922,
2009-09-12, 02:28:04,VALID,1001.11,VALID,0,VALID,88.6028,VALID,0,VALID,21.0485,VALID,112,VALID,0.157422,
2009-09-12, 02:29:04,VALID,1001.08,VALID,0,VALID,88.6257,VALID,0.112286,VALID,21.0485,VALID,112,VALID,0,
2009-09-12, 02:30:04,VALID,1001.08,VALID,0,VALID,88.6791,VALID,0,VALID,21.0485,VALID,112,VALID,0.146484,
2009-09-12, 02:31:04,VALID,1001.09,VALID,0,VALID,88.7096,VALID,0,VALID,21.0696,VALID,112,VALID,0,
2009-09-12, 02:32:04,VALID,1001.12,VALID,0,VALID,88.618,VALID,0.112286,VALID,21.0485,VALID,112,VALID,0.416797,
2009-09-12, 02:33:04,VALID,1001.1,VALID,0,VALID,88.7249,VALID,0,VALID,21.029,VALID,112,VALID,0.514063,
2009-09-12, 02:34:04,VALID,1001.08,VALID,0,VALID,88.7477,VALID,0,VALID,21.029,VALID,112,VALID,0.185937,
2009-09-12, 02:35:04,VALID,1001.09,VALID,0,VALID,88.4349,VALID,0,VALID,21.0095,VALID,112,VALID,0.360938,
2009-09-12, 02:36:04,VALID,1001.09,VALID,0,VALID,88.5036,VALID,0,VALID,20.99,VALID,110,VALID,0.430469,
2009-09-12, 02:37:04,VALID,1001.15,VALID,0,VALID,87.8017,VALID,0,VALID,20.9315,VALID,60,VALID,0.570703,
2009-09-12, 02:38:04,VALID,1001.17,VALID,0,VALID,86.6954,VALID,0,VALID,20.7755,VALID,55,VALID,0.678516,
2009-09-12, 02:39:04,VALID,1001.14,VALID,0,VALID,88.0153,VALID,0,VALID,20.6211,VALID,55,VALID,1.08125,
2009-09-12, 02:40:04,VALID,1001.12,VALID,0,VALID,89.03,VALID,0,VALID,20.5611,VALID,55,VALID,1.36914,
2009-09-12, 02:41:04,VALID,1001.16,VALID,0,VALID,89.0224,VALID,0.112286,VALID,20.5611,VALID,49,VALID,1.1418,
2009-09-12, 02:42:04,VALID,1001.17,VALID,0,VALID,88.3968,VALID,0.112286,VALID,20.5026,VALID,48,VALID,0.547656,
2009-09-12, 02:43:04,VALID,1001.16,VALID,0,VALID,88.2518,VALID,0,VALID,20.4067,VALID,48,VALID,0.280859,
2009-09-12, 02:44:04,VALID,1001.15,VALID,0,VALID,88.6562,VALID,0,VALID,20.3692,VALID,49,VALID,0.833594,
2009-09-12, 02:45:04,VALID,1001.15,VALID,0,VALID,88.9614,VALID,0,VALID,20.3303,VALID,49,VALID,0.832812,
2009-09-12, 02:46:04,VALID,1001.16,VALID,0,VALID,89.4726,VALID,0,VALID,20.2702,VALID,49,VALID,0.949609,
2009-09-12, 02:47:04,VALID,1001.15,VALID,0,VALID,90.3118,VALID,0,VALID,20.2913,VALID,49,VALID,0.966406,
2009-09-12, 02:48:04,VALID,1001.14,VALID,0,VALID,90.4949,VALID,0,VALID,20.3303,VALID,49,VALID,1.00742,
2009-09-12, 02:49:04,VALID,1001.17,VALID,0,VALID,90.8535,VALID,0,VALID,20.3872,VALID,45,VALID,1.16094,
2009-09-12, 02:50:04,VALID,1001.19,VALID,0,VALID,90.3042,VALID,0,VALID,20.4667,VALID,44,VALID,1.02852,
2009-09-12, 02:51:04,VALID,1001.21,VALID,0,VALID,90.411,VALID,0,VALID,20.4457,VALID,47,VALID,0.964063,
2009-09-12, 02:52:04,VALID,1001.23,VALID,0,VALID,90.2203,VALID,0,VALID,20.4667,VALID,53,VALID,0.739844,
2009-09-12, 02:53:04,VALID,1001.22,VALID,0,VALID,90.0448,VALID,0,VALID,20.4067,VALID,53,VALID,0.541797,
2009-09-12, 02:54:04,VALID,1001.23,VALID,0,VALID,90.3194,VALID,0,VALID,20.3692,VALID,48,VALID,0.54375,
2009-09-12, 02:55:04,VALID,1001.22,VALID,0,VALID,90.5102,VALID,0,VALID,20.3272,VALID,44,VALID,0.602344,
2009-09-12, 02:56:04,VALID,1001.24,VALID,0,VALID,90.9909,VALID,0,VALID,20.3272,VALID,44,VALID,0.666797,
2009-09-12, 02:57:04,VALID,1001.25,VALID,0,VALID,91.2045,VALID,0,VALID,20.3677,VALID,44,VALID,0.503906,
2009-09-12, 02:58:04,VALID,1001.23,VALID,0,VALID,90.823,VALID,0,VALID,20.3303,VALID,44,VALID,0.313281,
2009-09-12, 02:59:04,VALID,1001.23,VALID,0,VALID,91.2197,VALID,0,VALID,20.3108,VALID,44,VALID,0.440234,
2009-09-12, 03:00:04,VALID,1001.27,VALID,0,VALID,91.3342,VALID,0,VALID,20.3303,VALID,44,VALID,0.2875,
2009-09-12, 03:01:04,VALID,1001.3,VALID,0,VALID,91.3494,VALID,0,VALID,20.3303,VALID,42,VALID,0.782422,
2009-09-12, 03:02:04,VALID,1001.32,VALID,0,VALID,90.8917,VALID,0,VALID,20.2913,VALID,42,VALID,0.785156,
2009-09-12, 03:03:04,VALID,1001.32,VALID,0,VALID,90.8306,VALID,0,VALID,20.2133,VALID,42,VALID,0.478516,
2009-09-12, 03:04:04,VALID,1001.35,VALID,0,VALID,91.1892,VALID,0,VALID,20.1743,VALID,42,VALID,0.5625,
2009-09-12, 03:05:04,VALID,1001.35,VALID,0,VALID,91.8606,VALID,0,VALID,20.1938,VALID,43,VALID,0.620313,
2009-09-12, 03:06:04,VALID,1001.36,VALID,0,VALID,91.9751,VALID,0,VALID,20.2312,VALID,43,VALID,0.647656,
2009-09-12, 03:07:04,VALID,1001.39,VALID,0,VALID,91.8301,VALID,0,VALID,20.2718,VALID,43,VALID,0.487109,
2009-09-12, 03:08:04,VALID,1001.41,VALID,0,VALID,91.5707,VALID,0,VALID,20.2507,VALID,43,VALID,0.436719,
2009-09-12, 03:09:04,VALID,1001.41,VALID,0,VALID,91.5478,VALID,0,VALID,20.2312,VALID,43,VALID,0.418359,
2009-09-12, 03:10:04,VALID,1001.42,VALID,0,VALID,91.8683,VALID,0,VALID,20.2312,VALID,91,VALID,0.592188,
2009-09-12, 03:11:04,VALID,1001.42,VALID,0,VALID,92.2497,VALID,0,VALID,20.2897,VALID,110,VALID,0.661719,
2009-09-12, 03:12:04,VALID,1001.44,VALID,0,VALID,92.2497,VALID,0,VALID,20.3692,VALID,111,VALID,1.20273,
2009-09-12, 03:13:04,VALID,1001.46,VALID,0,VALID,92.0361,VALID,0.112286,VALID,20.4067,VALID,112,VALID,1.13281,
2009-09-12, 03:14:04,VALID,1001.45,VALID,0,VALID,91.9751,VALID,0,VALID,20.3662,VALID,127,VALID,0.944922,
2009-09-12, 03:15:04,VALID,1001.5,VALID,0,VALID,91.9827,VALID,0,VALID,20.4262,VALID,130,VALID,0.746484,
2009-09-12, 03:16:04,VALID,1001.48,VALID,0,VALID,92.0132,VALID,0,VALID,20.4051,VALID,130,VALID,0.662109,
2009-09-12, 03:17:04,VALID,1001.49,VALID,0,VALID,91.8835,VALID,0,VALID,20.4457,VALID,130,VALID,0.269922,
2009-09-12, 03:18:04,VALID,1001.5,VALID,0,VALID,91.7614,VALID,0,VALID,20.4262,VALID,130,VALID,0.170703,
2009-09-12, 03:19:04,VALID,1001.49,VALID,0,VALID,91.7309,VALID,0,VALID,20.4262,VALID,130,VALID,0.119531,
2009-09-12, 03:20:04,VALID,1001.51,VALID,0,VALID,91.5936,VALID,0,VALID,20.4051,VALID,130,VALID,0,
2009-09-12, 03:21:04,VALID,1001.5,VALID,0,VALID,91.3723,VALID,0,VALID,20.3662,VALID,51,VALID,0.530469,
2009-09-12, 03:22:04,VALID,1001.48,VALID,0,VALID,91.3266,VALID,0,VALID,20.3482,VALID,356,VALID,0.921094,
2009-09-12, 03:23:04,VALID,1001.46,VALID,0,VALID,91.4181,VALID,0,VALID,20.2882,VALID,356,VALID,0.866797,
2009-09-12, 03:24:04,VALID,1001.47,VALID,0,VALID,91.5173,VALID,0,VALID,20.3092,VALID,356,VALID,0.908594,
2009-09-12, 03:25:04,VALID,1001.48,VALID,0,VALID,91.7004,VALID,0,VALID,20.3092,VALID,356,VALID,0.754297,
2009-09-12, 03:26:04,VALID,1001.46,VALID,0,VALID,91.4105,VALID,0,VALID,20.2882,VALID,22,VALID,1.00781,
2009-09-12, 03:27:04,VALID,1001.49,VALID,0,VALID,91.6165,VALID,0,VALID,20.2882,VALID,35,VALID,0.267188,
2009-09-12, 03:28:04,VALID,1001.48,VALID,0,VALID,91.6775,VALID,0,VALID,20.2897,VALID,35,VALID,0.178125,
2009-09-12, 03:29:04,VALID,1001.49,VALID,0,VALID,92.0209,VALID,0,VALID,20.3077,VALID,35,VALID,0.2875,
2009-09-12, 03:30:04,VALID,1001.45,VALID,0,VALID,92.1353,VALID,0,VALID,20.3856,VALID,45,VALID,0.461328,
2009-09-12, 03:31:04,VALID,1001.49,VALID,0,VALID,92.0056,VALID,0,VALID,20.4067,VALID,45,VALID,0.577734,
2009-09-12, 03:32:04,VALID,1001.49,VALID,0,VALID,91.5707,VALID,0,VALID,20.3677,VALID,45,VALID,0.340625,
2009-09-12, 03:33:04,VALID,1001.48,VALID,0,VALID,91.235,VALID,0,VALID,20.2702,VALID,354,VALID,0.544531,
2009-09-12, 03:34:04,VALID,1001.49,VALID,0,VALID,91.5936,VALID,0,VALID,20.2117,VALID,348,VALID,0.723047,
2009-09-12, 03:35:04,VALID,1001.49,VALID,0,VALID,91.9598,VALID,0,VALID,20.2117,VALID,339,VALID,0.421875,
2009-09-12, 03:36:04,VALID,1001.55,VALID,0,VALID,91.9751,VALID,0,VALID,20.1907,VALID,339,VALID,0.302344,
2009-09-12, 03:37:04,VALID,1001.57,VALID,0,VALID,91.8988,VALID,0,VALID,20.1712,VALID,340,VALID,0.34375,
2009-09-12, 03:38:04,VALID,1001.55,VALID,0,VALID,92.1429,VALID,0,VALID,20.2117,VALID,340,VALID,0.329688,
2009-09-12, 03:39:04,VALID,1001.51,VALID,0,VALID,92.41,VALID,0,VALID,20.2312,VALID,34,VALID,0.908203,
2009-09-12, 03:40:04,VALID,1001.53,VALID,0,VALID,92.3337,VALID,0,VALID,20.2297,VALID,44,VALID,0.980078,
2009-09-12, 03:41:04,VALID,1001.56,VALID,0,VALID,92.2803,VALID,0,VALID,20.2507,VALID,56,VALID,1.35586,
2009-09-12, 03:42:04,VALID,1001.54,VALID,0,VALID,91.8988,VALID,0,VALID,20.2297,VALID,60,VALID,0.859766,
2009-09-12, 03:43:04,VALID,1001.53,VALID,0,VALID,91.7767,VALID,0,VALID,20.2117,VALID,55,VALID,0.844922,
2009-09-12, 03:44:04,VALID,1001.55,VALID,0,VALID,92.0895,VALID,0,VALID,20.2117,VALID,58,VALID,1.26289,
2009-09-12, 03:45:04,VALID,1001.52,VALID,0,VALID,91.3494,VALID,0,VALID,20.1338,VALID,58,VALID,0.933594,
2009-09-12, 03:46:04,VALID,1001.54,VALID,0,VALID,91.3266,VALID,0,VALID,20.0558,VALID,52,VALID,1.32148,